Catania, Italy

12:53 AM CET on February 08, 2016 (GMT +0100)
Fontanarossa

Weather History for LICC - May, 2013

Change the Weather History Date:

Thursday, May 23, 2013

  Actual Average Record
Temperature  
Mean Temperature 68 °F -  
Max Temperature 77 °F 81 °F 82 °F (2006)
Min Temperature 59 °F 58 °F 51 °F (2015)
Cooling Degree Days 4    
Growing Degree Days 18 (Base 50)    
Moisture  
Dew Point 43 °F    
Average Humidity 44    
Maximum Humidity 68    
Minimum Humidity 22    
Precipitation  
Precipitation 0.00 in 0.01 in - ()
Sea Level Pressure  
Sea Level Pressure 29.66 in    
Wind  
Wind Speed 17 mph ()    
Max Wind Speed 26 mph    
Max Gust Speed 40 mph    
Visibility 6.2 miles    
Events      
Averages and records for this station are not official NWS values.
T = Trace of Precipitation, MM = Missing Value Source: Averaged Metar Reports

Daily Weather History Graph

Daily Weather History Graph

Search for Another Location

Airport or City:

Trip Planner

Search our weather history database for the weather conditions in past years. The results will help you decide how hot, cold, wet, or windy it might be!

Date:

Astronomy

May. 23, 2013 Rise Set
Actual Time 5:44 AM CEST 8:08 PM CEST
Civil Twilight 5:14 AM CEST 8:38 PM CEST
Nautical Twilight 4:38 AM CEST 9:15 PM CEST
Astronomical Twilight 3:57 AM CEST 9:56 PM CEST
Moon 6:22 PM CEST (5/23) 4:14 AM CEST (5/23)
Length of Visible Light 15h 23m
Length of Day
14h 23m
Waxing Gibbous, 95% of the Moon is Illuminated
May 23
Waxing Gibbous
May 25
Full
May 31
Last Quarter
Jun 8
New
Jun 16
First Quarter

Hourly Weather History & Observations

Time (CEST) Temp. Dew Point Humidity Pressure Visibility Wind Dir Wind Speed Gust Speed Precip Events Conditions
12:20 AM 64.4 °F 53.6 °F 68% 29.50 in 6.2 mi WSW 23.0 mph 34.5 mph N/A   Scattered Clouds
12:50 AM 64.4 °F 53.6 °F 68% 29.50 in 6.2 mi WSW 23.0 mph - N/A   Scattered Clouds
1:20 AM 64.4 °F 53.6 °F 68% 29.50 in 6.2 mi WSW 21.9 mph - N/A   Scattered Clouds
1:50 AM 64.4 °F 51.8 °F 64% 29.53 in 6.2 mi WSW 18.4 mph 33.4 mph N/A   Scattered Clouds
2:20 AM 64.4 °F 50.0 °F 59% 29.56 in 6.2 mi West 17.3 mph - N/A   Scattered Clouds
2:50 AM 64.4 °F 48.2 °F 56% 29.56 in 6.2 mi West 17.3 mph 28.8 mph N/A   Scattered Clouds
3:20 AM 62.6 °F 48.2 °F 59% 29.56 in 6.2 mi West 13.8 mph - N/A   Partly Cloudy
3:50 AM 62.6 °F 48.2 °F 59% 29.59 in - WSW 12.7 mph - N/A   Clear
4:20 AM 62.6 °F 48.2 °F 59% 29.59 in - WSW 12.7 mph - N/A   Clear
4:50 AM 60.8 °F 48.2 °F 63% 29.59 in - WSW 13.8 mph - N/A   Clear
5:20 AM 60.8 °F 50.0 °F 68% 29.59 in 6.2 mi WSW 9.2 mph - N/A   Partly Cloudy
5:50 AM 62.6 °F 50.0 °F 63% 29.59 in 6.2 mi WSW 15.0 mph - N/A   Partly Cloudy
6:20 AM 62.6 °F 50.0 °F 63% 29.62 in 6.2 mi WSW 12.7 mph - N/A   Partly Cloudy
6:50 AM 62.6 °F 50.0 °F 63% 29.62 in 6.2 mi WSW 11.5 mph - N/A   Partly Cloudy
7:20 AM 62.6 °F 48.2 °F 59% 29.62 in 6.2 mi WSW 12.7 mph - N/A   Partly Cloudy
7:50 AM 64.4 °F 48.2 °F 56% 29.65 in 6.2 mi WSW 11.5 mph - N/A   Partly Cloudy
8:20 AM 66.2 °F 48.2 °F 52% 29.65 in 6.2 mi WSW 12.7 mph - N/A   Partly Cloudy
8:50 AM 68.0 °F 44.6 °F 43% 29.65 in 6.2 mi West 17.3 mph - N/A   Partly Cloudy
9:20 AM 69.8 °F 42.8 °F 38% 29.65 in 6.2 mi West 19.6 mph 32.2 mph N/A   Partly Cloudy
9:50 AM 71.6 °F 42.8 °F 35% 29.65 in 6.2 mi West 19.6 mph 31.1 mph N/A   Partly Cloudy
10:20 AM 71.6 °F 42.8 °F 35% 29.65 in 6.2 mi West 19.6 mph - N/A   Partly Cloudy
10:50 AM 73.4 °F 39.2 °F 29% 29.65 in 6.2 mi West 23.0 mph 35.7 mph N/A   Scattered Clouds
11:20 AM 73.4 °F 42.8 °F 33% 29.68 in 6.2 mi West 18.4 mph - N/A   Scattered Clouds
11:50 AM 75.2 °F 41.0 °F 29% 29.68 in 6.2 mi West 20.7 mph - N/A   Scattered Clouds
12:20 PM 75.2 °F 41.0 °F 29% 29.65 in 6.2 mi West 23.0 mph 38.0 mph N/A   Scattered Clouds
12:50 PM 77.0 °F 39.2 °F 26% 29.65 in 6.2 mi WSW 20.7 mph 33.4 mph N/A   Scattered Clouds
1:20 PM 75.2 °F 33.8 °F 22% 29.65 in 6.2 mi West 21.9 mph 35.7 mph N/A   Scattered Clouds
1:50 PM 75.2 °F 33.8 °F 22% 29.68 in 6.2 mi West 21.9 mph 34.5 mph N/A   Scattered Clouds
2:20 PM 75.2 °F 35.6 °F 24% 29.68 in 6.2 mi West 25.3 mph 40.3 mph N/A   Scattered Clouds
2:50 PM 75.2 °F 37.4 °F 25% 29.68 in 6.2 mi West 20.7 mph - N/A   Scattered Clouds
3:20 PM 75.2 °F 37.4 °F 25% 29.65 in 6.2 mi West 24.2 mph 35.7 mph N/A   Scattered Clouds
3:50 PM 75.2 °F 37.4 °F 25% 29.68 in 6.2 mi West 23.0 mph 35.7 mph N/A   Scattered Clouds
4:20 PM 75.2 °F 37.4 °F 25% 29.68 in 6.2 mi West 24.2 mph 36.8 mph N/A   Scattered Clouds
4:50 PM 73.4 °F 37.4 °F 27% 29.65 in 6.2 mi West 23.0 mph 36.8 mph N/A   Scattered Clouds
5:20 PM 75.2 °F 35.6 °F 24% 29.68 in 6.2 mi West 20.7 mph 34.5 mph N/A   Scattered Clouds
5:50 PM 73.4 °F 35.6 °F 25% 29.68 in 6.2 mi WSW 24.2 mph 38.0 mph N/A   Partly Cloudy
6:20 PM 71.6 °F 35.6 °F 27% 29.68 in 6.2 mi WSW 26.5 mph 40.3 mph N/A   Partly Cloudy
6:50 PM 69.8 °F 35.6 °F 28% 29.71 in 6.2 mi West 24.2 mph 38.0 mph N/A   Partly Cloudy
7:20 PM 69.8 °F 35.6 °F 28% 29.71 in 6.2 mi WSW 20.7 mph 35.7 mph N/A   Partly Cloudy
7:50 PM 66.2 °F 39.2 °F 37% 29.74 in 6.2 mi WSW 18.4 mph 33.4 mph N/A   Partly Cloudy
8:20 PM 66.2 °F 39.2 °F 37% 29.74 in 6.2 mi West 18.4 mph - N/A   Partly Cloudy
8:50 PM 64.4 °F 41.0 °F 42% 29.77 in 6.2 mi West 15.0 mph - N/A   Partly Cloudy
9:20 PM 64.4 °F 41.0 °F 42% 29.80 in 6.2 mi WSW 12.7 mph - N/A   Partly Cloudy
9:50 PM 62.6 °F 42.8 °F 48% 29.80 in 6.2 mi WSW 11.5 mph - N/A   Partly Cloudy
10:20 PM 62.6 °F 44.6 °F 52% 29.83 in - WSW 13.8 mph - N/A   Clear
10:50 PM 60.8 °F 44.6 °F 55% 29.83 in - WSW 10.4 mph - N/A   Clear
11:20 PM 60.8 °F 44.6 °F 55% 29.83 in - WSW 11.5 mph - N/A   Clear
11:50 PM 59.0 °F 44.6 °F 59% 29.83 in - WSW 13.8 mph - N/A   Clear